Location: Juzet
(42.9779°N, 0.7597°E)
Time: 17:55:24
(UTC+00:00)

Cosmos 1869 Rocket - Pass Details

Date: 14 July 2020
Orbit: 606 x 632 km, 82.5° (Epoch: 12 August)

Event Time Altitude Azimuth Distance (km) Brightness Sun altitude
Exits shadow 02:04:43 41° 249° (WSW) 887 4.0 -19.6°
Maximum altitude 02:05:32 46° 282° (WNW) 816 4.0 -19.5°
Drops below altitude 10° 02:09:44 10° 356° (N) 1,969 6.9 -19.1°
Sets 02:12:03 0° 3° (N) 2,881 8.1 -18.9°
